EFTUEFPO

Guest
Details From EFTU - Turku
To EFPO - Pori
Flight Number -
Tags Generated
Created
Modified
Stats Distance 59 nm / 108 km
Max Altitude 0 ft / 0 m
Waypoints 2
Social Downloads 2
Likes 0
Share VATSIM

Download

Looking for another format? Having issues loading an existing format? Contact us
Advertisement - Login to hide

Notes

Generated

Route

EFTU EFPO

ID Type Via Altitude Latitude Longitude Leg Dist Tot Dist Heading (true) Name
O EFTU APT - 0 ft / 0 m 60.51311˚ 22.24015˚ - 0 nm - -
O EFPO APT - 0 ft / 0 m 61.46398˚ 21.79848˚ 58 nm 58 nm 347° / 347° Pori

Altitude Profile

Advertisement - Login to hide

EFTU

Details ICAO EFTU (TKU)
Name Turku
Region Finland
Timezone Europe/Helsinki (UTC+3.0)
Stats Elevation 161 ft / 49 m (AMSL)
Location 60.514115° 22.262812°
Runways 1
Magnetic Variation 8.044° E

METAR

EFTU 211520Z AUTO 22010KT CAVOK 21/05 Q1026

Decode

TAF

TAF EFTU 211435Z 2115/2215 23009KT CAVOK

Decode

Departure Runways

ID Width Length Bearing (true) Bearing (mag) Surface Threshold Offset Overrun Length
08 197 ft / 60 m 8,175 ft / 2,492 m 84.82° 76.78° Asphalt 0 ft / 0 m 0 ft / 0 m
26 197 ft / 60 m 8,175 ft / 2,492 m 264.86° 256.82° Asphalt 0 ft / 0 m 0 ft / 0 m

EFPO

Details ICAO EFPO (POR)
Name Pori
Region Finland
Timezone Europe/Helsinki (UTC+3.0)
Stats Elevation 44 ft / 13 m (AMSL)
Location 61.461174° 21.799255°
Runways 2
Magnetic Variation 8.106° E

METAR

EFPO 211520Z AUTO 24010KT 200V280 CAVOK 22/03 Q1025

Decode

TAF

Not found

Destination Runways

ID Width Length Bearing (true) Bearing (mag) Surface Threshold Offset Overrun Length
12 197 ft / 60 m 7,692 ft / 2,345 m 125.81° 117.70° Asphalt 312 ft / 95 m 0 ft / 0 m
17 98 ft / 30 m 2,623 ft / 799 m 173.89° 165.78° Asphalt 400 ft / 122 m 0 ft / 0 m
30 197 ft / 60 m 7,692 ft / 2,345 m 305.84° 297.73° Asphalt 1,132 ft / 345 m 0 ft / 0 m
35 98 ft / 30 m 2,623 ft / 799 m 353.90° 345.79° Asphalt 400 ft / 122 m 0 ft / 0 m

Approach Navaids

Runway Type Ident Frequency Range Bearing (true) Bearing (mag) Slope Elevation
30 Localiser PO 109.10 MHz 18 nm / 33 km 305.81° 297.70° - 44 ft / 13 m (AMSL)
30 Glidescope PO 109.10 MHz 10 nm / 19 km 305.83° 297.72° 3.00° 44 ft / 13 m (AMSL)

Popular Alternatives